Header for Extended Forecast Station List Page

Search by: ID | Name | Date | Parm | Value | Avg | % Avg
Sort by: ID | Name | Date | Parm | Value | Avg | % Avg

Enter search or view all records.

Click on id for station plot
#IDNameDateParmValueAvg% Avg
0OWYO3OWYHEE-OWYHEE DAM02-20-2018INFLOW (KAF)20336056
1VALO3MALHEUR-NEAR VALE02-20-2018DISCHARGE (KAF)376161
2HOTI1BRUNEAU-NEAR HOT SPRINGS02-20-2018DISCHARGE (KAF)10516863
3BERO3MALHEUR-AGENCY VALLEY DAM02-20-2018INFLOW (KAF)335263
4WRMO3MALHEUR-WARM SPRINGS DAM02-20-2018INFLOW (KAF)467066
5LWRI1LITTLE WOOD-LITTLE WOOD DAM02-20-2018INFLOW (KAF)466867
6SERO3JOHN DAY-AT SERVICE CK02-20-2018DISCHARGE (KAF)62489969
7RIDI1WILLOW CREEK-RIRIE DAM02-20-2018INFLOW (KAF)304370
8MONO3NF JOHN DAY-AT MONUMENT02-20-2018DISCHARGE (KAF)46662575
9PIHI1PORTNEUF-AT POCATELLO02-20-2018DISCHARGE (KAF)7610076
10WSRI1WEISER-NEAR WEISER02-20-2018DISCHARGE (KAF)35043680
11MAGI1BIG WOOD-MAGIC DAM02-20-2018INFLOW (KAF)17321281
12ARAI1SF BOISE-ANDERSON RANCH DAM02-20-2018INFLOW (KAF)37744585
13PARI1BOISE-NEAR PARMA02-20-2018DISCHARGE (KAF)36541987
14ANAW1SNAKE-NEAR ANATONE02-20-2018DISCHARGE (KAF)110891251089
15WEII1SNAKE-AT WEISER02-20-2018DISCHARGE (KAF)4891534991
16EMMI1PAYETTE-NEAR EMMETT02-20-2018DISCHARGE (KAF)1031112392
17BRNI1SNAKE-BROWNLEE DAM02-20-2018INFLOW (KAF)5331578792
18BIGI1BOISE-AT GLENWOOD BRIDGE02-20-2018DISCHARGE (KAF)32935593
19CSDI1NF PAYETTE-CASCADE DAM02-20-2018INFLOW (KAF)42245593
20MODO3DESCHUTES-AT MOODY NR BIGGS02-20-2018DISCHARGE (KAF)1447152795
21MACI1BIG LOST-MACKAY RESERVOIR NEAR MACKAY02-20-2018INFLOW (KAF)10010496
22LGDW1SNAKE-LOWER GRANITE DAM02-20-2018INFLOW (KAF)183961896297
23LGSW1SNAKE-LITTLE GOOSE DAM02-20-2018INFLOW (KAF)183961899597
24TRYO3GRANDE RONDE-TROY02-20-2018DISCHARGE (KAF)1214123598
25LMNW1SNAKE-LOWER MONUMENTAL DAM02-20-2018INFLOW (KAF)188061920298
26JDAO3COLUMBIA-JOHN DAY DAM02-20-2018INFLOW (KAF)556915674598
27PITW1KLICKITAT-NEAR PITT02-20-2018DISCHARGE (KAF)52052998
28HODO3HOOD-NEAR TUCKER BRIDGE02-20-2018DISCHARGE (KAF)26427098
29UNDW1WHITE SALMON-NEAR UNDERWOOD02-20-2018DISCHARGE (KAF)34835598
30DLGM8CLARK FORK-AT DEER LODGE02-20-2018DISCHARGE (KAF)818299
31DEDI1DEADWOOD-NEAR LOWMAN02-20-2018INFLOW (KAF)10610899
32IHDW1SNAKE-ICE HARBOR DAM02-20-2018INFLOW (KAF)188061907999
33MCDW1COLUMBIA-MCNARY DAM02-20-2018INFLOW (KAF)535715416999
34LAUW1KETTLE-AT LAURIER02-20-2018DISCHARGE (KAF)14681463100
35KIOW1YAKIMA-AT KIONA02-20-2018DISCHARGE (KAF)10271016101
36BONO3COLUMBIA-BONNEVILLE DAM02-20-2018INFLOW (KAF)5725456473101
37GCDW1COLUMBIA-GRAND COULEE DAM02-20-2018INFLOW (KAF)3143930835102
38PRWW1COLUMBIA-PRIEST RAPIDS DAM02-20-2018INFLOW (KAF)3357132971102
39KADW1KACHESS-KACHESS DAM02-20-2018INFLOW (KAF)102100102
40LYDM8KOOTENAI-LIBBY DAM02-20-2018INFLOW (KAF)38603756103
41LLKW1SPOKANE-AT LONGLAKE02-20-2018INFLOW (KAF)34823388103
42WANW1COLUMBIA-WANAPUM DAM02-20-2018INFLOW (KAF)3357532392104
43BULO3BULLY CREEK-BULLY CREEK DAM02-20-2018INFLOW (KAF)88104
44TDAO3COLUMBIA-THE DALLES DAM02-20-2018INFLOW (KAF)5613054215104
45CLUW1CLE ELUM-CLE ELUM LAKE02-20-2018INFLOW (KAF)337319106
46CHJW1COLUMBIA-CHIEF JOSEPH DAM02-20-2018INFLOW (KAF)2976727850107
47WELW1COLUMBIA-WELLS DAM02-20-2018INFLOW (KAF)3187329772107
48CHDW1CHELAN-LAKE CHELAN DAM02-20-2018INFLOW (KAF)770718107
49RRHW1COLUMBIA-ROCKY REACH DAM02-20-2018INFLOW (KAF)3240130207107
50SWAI1SNAKE-BELOW SWAN FALLS02-20-2018DISCHARGE (KAF)28462671107
51PESW1WENATCHEE-AT PESHASTIN02-20-2018DISCHARGE (KAF)11841097108
52WHBI1SALMON-AT WHITEBIRD02-20-2018DISCHARGE (KAF)48334483108
53PRTI1PRIEST-NEAR PRIEST RIVER02-20-2018DISCHARGE (KAF)782716109
54HALI1BIG WOOD-AT HAILEY02-20-2018DISCHARGE (KAF)183166110
55SATI1ST MARIES-NEAR SANTA02-20-2018DISCHARGE (KAF)168150112
56KEDW1YAKIMA-KEECHELUS LAKE02-20-2018INFLOW (KAF)118106112
57UMTW1YAKIMA-AT UMTANUM02-20-2018DISCHARGE (KAF)709634112
58RILW1TIETON-RIMROCK LAKE NEAR RIMROCK02-20-2018INFLOW (KAF)176157112
59REXI1HENRYS FORK-AT REXBURG02-20-2018DISCHARGE (KAF)790704112
60COEI1COEUR D ALENE-COEUR D ALENE LAKE02-20-2018INFLOW (KAF)31922816113
61TONW1OKANOGAN-NEAR TONASKET02-20-2018DISCHARGE (KAF)13191167113
62HWRI1BIG LOST-AT HOWELL RANCH NEAR CHILLY02-20-2018DISCHARGE (KAF)115102113
63SPDI1CLEARWATER-AT SPALDING02-20-2018DISCHARGE (KAF)73086451113
64LEOI1KOOTENAI-AT LEONIA02-20-2018DISCHARGE (KAF)43403819114
65TEAI1TETON-NEAR ST. ANTHONY02-20-2018DISCHARGE (KAF)292256114
66CLFW1NACHES-NEAR CLIFFDEL02-20-2018DISCHARGE (KAF)371321115
67ANTI1HENRYS FORK-AT ST. ANTHONY02-20-2018DISCHARGE (KAF)690602115
68BUDW1BUMPING-BUMPING LAKE DAM02-20-2018INFLOW (KAF)11195116
69GIBO3UMATILLA-NEAR GIBBON02-20-2018DISCHARGE (KAF)9683116
70NOXM8CLARK FORK-NOXON RAPIDS DAM02-20-2018INFLOW (KAF)87977509117
71ALFW1PEND OREILLE-ALBENI FALLS DAM02-20-2018INFLOW (KAF)111359496117
72ARDW1ENTIAT-NEAR ARDENVOIR02-20-2018DISCHARGE (KAF)167143117
73EASW1YAKIMA-AT EASTON02-20-2018DISCHARGE (KAF)11699117
74IPDI1HENRYS FORK-ISLAND PARK DAM02-20-2018INFLOW (KAF)209179117
75CHEI1FALL RIVER-NEAR CHESTER02-20-2018DISCHARGE (KAF)341291117
76PDTO3UMATILLA-AT PENDLETON02-20-2018DISCHARGE (KAF)217185118
77ORFI1CLEARWATER-AT OROFINO02-20-2018DISCHARGE (KAF)49154141119
78FCFM8NF FLATHEAD-NEAR COLUMBIA FALLS02-20-2018DISCHARGE (KAF)14231184120
79DWRI1NF CLEARWATER-DWORSHAK DAM02-20-2018INFLOW (KAF)31052572121
80PARW1YAKIMA-NEAR PARKER02-20-2018DISCHARGE (KAF)777636122
81CABI1CLARK FORK-CABINET GORGE DAM02-20-2018INFLOW (KAF)97057879123
82PATW1METHOW-NEAR PATEROS02-20-2018DISCHARGE (KAF)807651124
83TNAW1TEANAWAY-BELOW FORKS02-20-2018DISCHARGE (KAF)164132124
84BITM8BITTERROOT-NEAR MISSOULA02-20-2018DISCHARGE (KAF)1203960125
85STRM8ST. REGIS-NEAR ST. REGIS02-20-2018DISCHARGE (KAF)297237125
86KERM8FLATHEAD-KERR DAM02-20-2018INFLOW (KAF)52044129126
87WGCM8MF FLATHEAD-NEAR WEST GLACIER02-20-2018DISCHARGE (KAF)14711156127
88PLDI1SF SNAKE-PALISADES DAM02-20-2018INFLOW (KAF)25502000128
89TCHW1WALLA WALLA-NEAR TOUCHET02-20-2018DISCHARGE (KAF)241187129
90SRGM8CLARK FORK-AT ST REGIS02-20-2018DISCHARGE (KAF)37992917130
91HHWM8SF FLATHEAD-HUNGRY HORSE DAM02-20-2018INFLOW (KAF)20261543131
92CFMM8FLATHEAD-AT COLUMBIA FALLS02-20-2018DISCHARGE (KAF)43803264134
93JLKW4SNAKE-JACKSON LAKE AT DAM02-20-2018INFLOW (KAF)740543136
94BELM8CLARK FORK-BELOW MISSOULA02-20-2018DISCHARGE (KAF)29412146137
95ALPW4SNAKE-NEAR ALPINE02-20-2018DISCHARGE (KAF)17781302137
96UMAO3UMATILLA-NEAR UMATILLA02-20-2018DISCHARGE (KAF)198144137
97AFRI1SNAKE-AMERICAN FALLS RESERVOIR02-20-2018INFLOW (KAF)31862311138
98NACW1NACHES-NEAR NACHES02-20-2018DISCHARGE (KAF)576411140
99MYKO3MCKAY CREEK-NEAR PILOT ROCK02-20-2018DISCHARGE (KAF)5035141
100RCCM8ROCK CREEK-NEAR CLINTON02-20-2018DISCHARGE (KAF)277193143
101JKSW4SNAKE-NEAR JACKSON02-20-2018DISCHARGE (KAF)1410989143
102ABOM8CLARK FORK-ABOVE MISSOULA02-20-2018DISCHARGE (KAF)17381162150
103SHYI1SNAKE-NEAR SHELLEY02-20-2018DISCHARGE (KAF)29211927152
104HEII1SNAKE-NEAR HEISE02-20-2018DISCHARGE (KAF)29881941154
105SIFI1SNAKE-AB EAGLE ROCK NR IDAHO FALLS02-20-2018DISCHARGE (KAF)30431947156
106SNAI1SNAKE-AT BLACKFOOT02-20-2018DISCHARGE (KAF)26211666157
107BFTI1SNAKE-NEAR BLACKFOOT02-20-2018DISCHARGE (KAF)26021642158
108MILI1SNAKE-AT MILNER02-20-2018DISCHARGE (KAF)1043634164
109BONM8BLACKFOOT-NEAR BONNER02-20-2018DISCHARGE (KAF)1108638174
110BFEI1KOOTENAI-AT BONNERS FERRY02-20-2018STAGE (FT)MMM
111DRMM8CLARK FORK-NR DRUMMOND02-20-2018DISCHARGE (KAF)293MM
112HOPI1PEND OREILLE-PEND OREILLE LAKE NR HOPE02-20-2018LAKE ELEVATION (FT)MMM
113SPOW1SPOKANE-AT SPOKANE02-20-2018DISCHARGE (KAF)3152MM
114SJMI1ST JOE-AT ST MARIES02-20-2018STAGE (FT)MMM
115CIBW1COLUMBIA-AT INTL BOUNDARY02-20-2018DISCHARGE (KAF)26368MM
116LUCI1BOISE-LUCKY PEAK DAM02-20-2018INFLOW (KAF)892MM